Location: Bremen
(53.0793°N, 8.8017°E)
Time: 04:41:39
(UTC+02:00)

Explorer 7 - Pass Details

Date: 18 April 2024
Orbit: 467 x 626 km, 50.3° (Epoch: 17 May)

Event Time Altitude Azimuth Distance (km) Brightness Sun altitude
Rises 17:13:29 0° 275° (W) 2,910 11.5 28.2°
Reaches altitude 10° 17:15:52 10° 270° (W) 1,991 11.1 27.9°
Maximum altitude 17:20:18 50° 195° (SSW) 773 8.3 27.2°
Drops below altitude 10° 17:24:34 10° 120° (ESE) 1,914 9.3 26.6°
Sets 17:26:50 0° 115° (ESE) 2,787 10.0 26.3°
